Weather in Nagayevo

Russia / Ulyanovsk Oblast     54°10′52″N   46°43′21″E
temp.,
°C
wind,
m/s
gust,
m/s
humid.,
%
clouds,
%
prec.,
mm/h
press.,
hPa
HPBL,
m
13 june, sun
sun1301:00+15sse229382 0.1 101124
04:00+14s23935 0.1 101141
07:00+17s37890 0.0 1011223
10:00+21ssw577586 2.0 1011672
13:00+23ssw6863100 0.6 10111455
16:00+22sw697478 2.4 10111297
19:00+20ssw59815 1.1 1011557
22:00+17s389195 3.7 1012127
14 june, mon
mon1401:00+15s389523 0.3 1013151
04:00+15ssw2294100 0.3 101435
07:00+18s249124 0.0 1015167
10:00+22s24785 1.4 1016418
13:00+24sw346288 1.7 10161333
16:00+25sw136056 4.0 10161230
19:00+24nw1277100 0.3 1015194
22:00+19ne1185100 0.5 101611
15 june, tue
tue1501:00+17n1290100 0.1 101512
04:00+16ne2293100 0.1 101414
07:00+18ne2691100 0.0 1014203
10:00+19e369299 0.9 1014282
13:00+22se478181 0.1 1013715
16:00+25sse577483 1.4 10121209
19:00+23s488010 1.2 1011376
22:00+18se228755 1.3 101124
16 june, wed
wed1601:00+16ese2291100 0.0 101027
04:00+17e228499 0.0 100932
07:00+19ene268459 0.0 1008201
10:00+23se45663 0.0 1007678
13:00+26sse235575 0.0 10061155
16:00+26wnw546793 0.0 10061119
19:00+23wnw47785 0.2 1006361
22:00+18wnw5119324 0.4 1009469
17 june, thu
thu1701:00+16nnw7138614 0.0 1011588
04:00+13nnw513936 0.0 1013448
07:00+15nnw612850 0.0 1015588
10:00+17nnw711620 0.0 10181117
13:00+19nnw811550 0.0 10191643
16:00+20nnw79603 0.0 10191801
19:00+18nnw48700 0.0 1021437
22:00+14nw228111 0.0 102218